Regional Weather Roundup
Issued by NWS Little Rock, AR

Home | Current Version | Previous Version | Text Only | Print | Product List | Glossary On
Versions: 1 2 3 4 5 6 7 8 9 10 11 12 13 14 15 16 17 18 19 20 21 22 23 24 25 26 27 28 29 30 31 32
000
ASUS44 KLZK 211212
RWRLZK

WEATHER ROUNDUP FOR ARKANSAS
NATIONAL WEATHER SERVICE LITTLE ROCK AR
700 AM CDT SAT OCT 21 2017

NOTE: "FAIR" INDICATES FEW OR NO CLOUDS BELOW 12,000 FEET WITH NO
SIGNIFICANT WEATHER AND/OR OBSTRUCTIONS TO VISIBILITY.

ARZ001-003-010-029-211300-
NORTHWEST ARKANSAS

CITY           SKY/WX    TMP DP  RH WIND       PRES   REMARKS
FAYETTEVILLE   MOCLDY    65  62  90 S9G17     29.96R
6HR MIN TEMP:  64; 6HR MAX TEMP:  66;

FORT SMITH     PTCLDY    66  61  84 E7        29.96S
6HR MIN TEMP:  62; 6HR MAX TEMP:  67; 6HR PCP: TRACE;

HARRISON       PTCLDY    63  59  87 SE7       30.01S
6HR MIN TEMP:  63; 6HR MAX TEMP:  66;

BENTONVILLE    CLOUDY    66  60  81 S13G20    29.97S
6HR MIN TEMP:  62; 6HR MAX TEMP:  66;

ROGERS         PTCLDY    64  59  82 SE10      29.96S
6HR MIN TEMP:  63; 6HR MAX TEMP:  64;

SILOAM SPGS    CLOUDY    66  61  84 S12G20    29.95S
6HR MIN TEMP:  63; 6HR MAX TEMP:  66;

HIGHFILL       CLOUDY    66  61  84 S17G24    29.95S
6HR MIN TEMP:  62; 6HR MAX TEMP:  66;

SPRINGDALE     CLOUDY    66  61  82 SE13G20   29.98R
$$

ARZ004-005-016-211300-
NORTH CENTRAL ARKANSAS

CITY           SKY/WX    TMP DP  RH WIND       PRES   REMARKS
BATESVILLE     CLOUDY    65  60  84 SE7       30.08R
6HR MIN TEMP:  64; 6HR MAX TEMP:  66; 6HR PCP: TRACE;

FLIPPIN        MOCLDY    60  56  86 SE3       30.02F
6HR MIN TEMP:  60; 6HR MAX TEMP:  64;

MTN HOME       PTCLDY    60  58  92 SE6       30.02F
6HR MIN TEMP:  60; 6HR MAX TEMP:  62;

$$

ARZ040-041-211300-
WEST CENTRAL ARKANSAS

CITY           SKY/WX    TMP DP  RH WIND       PRES   REMARKS
MENA           CLOUDY    70  70 100 CALM      30.01S
$$

ARZ009-017-025-026-028-211300-
NORTHEAST ARKANSAS

CITY           SKY/WX    TMP DP  RH WIND       PRES   REMARKS
CORNING        FAIR      63  57  82 S6        30.09R
JONESBORO      CLOUDY    60  57  89 NE3       30.10R
6HR MIN TEMP:  59; 6HR MAX TEMP:  61;

NEWPORT        CLOUDY    64  59  83 S8        30.08R
6HR MIN TEMP:  62; 6HR MAX TEMP:  65;

WALNUT RIDGE   CLOUDY    63  57  81 SE7       30.09R
6HR MIN TEMP:  60; 6HR MAX TEMP:  63;

BLYTHEVILLE    CLEAR     62  54  74 S8        30.12R
6HR MIN TEMP:  60; 6HR MAX TEMP:  63;

$$

ARZ022-023-033-042-044-211300-
CENTRAL ARKANSAS

CITY           SKY/WX    TMP DP  RH WIND       PRES   REMARKS
LITTLE ROCK    CLOUDY    63  61  93 SE5       30.06R
6HR MIN TEMP:  57; 6HR MAX TEMP:  64;

N LITTLE ROCK    N/A     64  60  85 S5        30.07R
6HR MIN TEMP:  62; 6HR MAX TEMP:  65;

JACKSONVILLE   CLOUDY    61  61 100 CALM      30.05R
6HR MIN TEMP:  56; 6HR MAX TEMP:  62;

SEARCY         CLOUDY    64  62  93 SE3       30.07R
6HR MIN TEMP:  59; 6HR MAX TEMP:  64;

HOT SPRINGS    CLOUDY    69  66  90 S8        30.04R
6HR MIN TEMP:  62; 6HR MAX TEMP:  69; 6HR PCP: TRACE;

RUSSELLVILLE   CLOUDY    65  60  84 E7        30.01S
6HR MIN TEMP:  61; 6HR MAX TEMP:  65;

CLINTON        CLOUDY    57  57 100 CALM      30.06S
$$

ARZ036-211300-
EAST ARKANSAS

CITY           SKY/WX    TMP DP  RH WIND       PRES   REMARKS
WEST MEMPHIS   CLOUDY    63  55  75 S8        30.09R
6HR MIN TEMP:  61; 6HR MAX TEMP:  65;

$$

ARZ050-053-066-070-073-211300-
SOUTHWEST ARKANSAS

CITY           SKY/WX    TMP DP  RH WIND       PRES   REMARKS
ARKADELPHIA    CLOUDY    63  62  97 CALM      30.05R
6HR MIN TEMP:  54; 6HR MAX TEMP:  63;

CAMDEN         CLOUDY    66  61  82 S5        30.04R
TEXARKANA      CLOUDY    68  67  96 S10       30.01R
6HR MIN TEMP:  64; 6HR MAX TEMP:  68; 6HR PCP: TRACE;

EL DORADO      CLOUDY    67  67 100 S5        30.04R
6HR MIN TEMP:  62; 6HR MAX TEMP:  67;

DE QUEEN       CLOUDY    64  64 100 E7        29.97S
6HR MIN TEMP:  62; 6HR MAX TEMP:  65; 6HR PCP: TRACE;

$$

ARZ056-057-069-211300-
SOUTHEAST ARKANSAS

CITY           SKY/WX    TMP DP  RH WIND       PRES   REMARKS
PINE BLUFF     CLOUDY    66  61  84 SE6       30.06R
6HR MIN TEMP:  61; 6HR MAX TEMP:  66;

STUTTGART      LGT RAIN  67  61  81 SE8       30.07R
6HR MIN TEMP:  63; 6HR MAX TEMP:  67; 6HR PCP: TRACE;

MONTICELLO     CLOUDY    66  62  87 SE5       30.06R
6HR MIN TEMP:  63; 6HR MAX TEMP:  66;


$$






USA.gov is the U.S. government's official web portal to all federal, state and local government web resources and services.